When you browse on this site, cookies collect data to enhance your experience and personalize the content and advertising you see.
Visit our Privacy Policy to learn more. By continuing to use the site, you agree to this use of cookies and data.
  • En España
  • Lista de países
  • Para 7 días
  • Temperatura del agua
  • Mapa Satelital
  • El tiempo en el mapa
  • Informadores
  • user-avatar
    Iniciar sesión

    Tiempo cada hora Gavriki

    Hoy, 25 Mayo, Sábado

    Tiempo Temperatura Precipitaciones Viento Presión Humedad
    00:00 +14°C° 0 mm 3 mps 741 mmHg 97%
    01:00 +14°C° 0 mm 3 mps 741 mmHg 98%
    02:00 +13°C° 0 mm 3 mps 740 mmHg 98%
    03:00 +14°C° 0 mm 3 mps 740 mmHg 97%
    04:00 +14°C° 0 mm 3 mps 740 mmHg 96%
    05:00 +14°C° 0 mm 3 mps 740 mmHg 96%
    06:00 +16°C° 0.3 mm 3 mps 740 mmHg 95%
    07:00 +16°C° 0.3 mm 3 mps 740 mmHg 94%
    08:00 +16°C° 0.3 mm 3 mps 740 mmHg 93%
    09:00 +17°C° 0.7 mm 3 mps 739 mmHg 91%
    10:00 +18°C° 0.7 mm 3 mps 739 mmHg 90%
    11:00 +18°C° 0.7 mm 3 mps 739 mmHg 88%
    12:00 +19°C° 0.5 mm 3 mps 739 mmHg 86%
    13:00 +20°C° 0.5 mm 3 mps 739 mmHg 83%
    14:00 +20°C° 0.5 mm 3 mps 739 mmHg 81%
    15:00 +20°C° 0.2 mm 2 mps 738 mmHg 80%
    16:00 +21°C° 0.2 mm 2 mps 738 mmHg 79%
    17:00 +21°C° 0.2 mm 2 mps 738 mmHg 78%
    18:00 +19°C° 0.8 mm 2 mps 738 mmHg 82%
    19:00 +18°C° 0.8 mm 2 mps 738 mmHg 87%
    20:00 +16°C° 0.8 mm 2 mps 737 mmHg 91%
    21:00 +15°C° 0 mm 2 mps 738 mmHg 92%
    22:00 +14°C° 0 mm 3 mps 738 mmHg 93%
    23:00 +13°C° 0 mm 3 mps 738 mmHg 93%

    Mañana, 26 Mayo, Domingo

    Tiempo Temperatura Precipitaciones Viento Presión Humedad
    00:00 +12°C° 0 mm 3 mps 738 mmHg 94%
    01:00 +12°C° 0 mm 2 mps 738 mmHg 95%
    02:00 +12°C° 0 mm 2 mps 738 mmHg 96%
    03:00 +10°C° 0 mm 2 mps 739 mmHg 95%
    04:00 +10°C° 0 mm 2 mps 739 mmHg 95%
    05:00 +10°C° 0 mm 3 mps 739 mmHg 95%
    06:00 +11°C° 0 mm 3 mps 739 mmHg 90%
    07:00 +13°C° 0 mm 3 mps 739 mmHg 86%
    08:00 +14°C° 0 mm 3 mps 739 mmHg 82%
    09:00 +16°C° 0 mm 3 mps 739 mmHg 76%
    10:00 +17°C° 0 mm 4 mps 739 mmHg 70%
    11:00 +18°C° 0 mm 4 mps 739 mmHg 64%
    12:00 +18°C° 0 mm 4 mps 739 mmHg 62%
    13:00 +19°C° 0 mm 4 mps 739 mmHg 60%
    14:00 +19°C° 0 mm 4 mps 739 mmHg 59%
    15:00 +19°C° 0 mm 4 mps 739 mmHg 60%
    16:00 +19°C° 0 mm 4 mps 739 mmHg 62%
    17:00 +18°C° 0 mm 4 mps 739 mmHg 63%
    18:00 +17°C° 0 mm 4 mps 739 mmHg 68%
    19:00 +14°C° 0 mm 3 mps 739 mmHg 73%
    20:00 +13°C° 0 mm 3 mps 739 mmHg 78%
    21:00 +12°C° 0 mm 3 mps 739 mmHg 82%
    22:00 +11°C° 0 mm 3 mps 739 mmHg 86%
    23:00 +12°C° 0 mm 2 mps 740 mmHg 90%

    Pasado mañana, 27 Mayo, Lunes

    Tiempo Temperatura Precipitaciones Viento Presión Humedad
    00:00 +11°C° 0 mm 3 mps 740 mmHg 89%
    01:00 +11°C° 0 mm 3 mps 740 mmHg 88%
    02:00 +11°C° 0 mm 3 mps 740 mmHg 87%
    03:00 +11°C° 0 mm 3 mps 740 mmHg 88%
    04:00 +11°C° 0 mm 3 mps 740 mmHg 88%
    05:00 +11°C° 0 mm 3 mps 740 mmHg 89%
    06:00 +12°C° 0 mm 4 mps 741 mmHg 84%
    07:00 +13°C° 0 mm 5 mps 741 mmHg 79%
    08:00 +15°C° 0 mm 5 mps 741 mmHg 74%
    09:00 +15°C° 0 mm 5 mps 741 mmHg 73%
    10:00 +16°C° 0 mm 6 mps 741 mmHg 72%
    11:00 +16°C° 0 mm 6 mps 742 mmHg 71%
    12:00 +17°C° 0.1 mm 6 mps 742 mmHg 71%
    13:00 +19°C° 0.1 mm 6 mps 742 mmHg 70%
    14:00 +19°C° 0.1 mm 5 mps 742 mmHg 70%
    15:00 +20°C° 0.3 mm 5 mps 742 mmHg 72%
    16:00 +20°C° 0.3 mm 4 mps 742 mmHg 74%
    17:00 +20°C° 0.3 mm 4 mps 742 mmHg 77%
    18:00 +19°C° 0.5 mm 4 mps 742 mmHg 81%
    19:00 +18°C° 0.5 mm 3 mps 742 mmHg 85%
    20:00 +17°C° 0.5 mm 3 mps 742 mmHg 89%
    21:00 +16°C° 0.1 mm 3 mps 742 mmHg 90%
    22:00 +14°C° 0.1 mm 3 mps 742 mmHg 92%
    23:00 +14°C° 0.1 mm 3 mps 742 mmHg 94%

    28 Mayo, Martes

    Tiempo Temperatura Precipitaciones Viento Presión Humedad
    00:00 +14°C° 0 mm 3 mps 742 mmHg 94%
    01:00 +13°C° 0 mm 3 mps 742 mmHg 94%
    02:00 +13°C° 0 mm 3 mps 742 mmHg 95%
    03:00 +13°C° 0 mm 3 mps 742 mmHg 95%
    04:00 +14°C° 0 mm 3 mps 742 mmHg 95%
    05:00 +14°C° 0 mm 3 mps 742 mmHg 95%
    06:00 +17°C° 0 mm 3 mps 742 mmHg 91%
    07:00 +19°C° 0 mm 4 mps 743 mmHg 87%
    08:00 +20°C° 0 mm 4 mps 743 mmHg 82%
    09:00 +22°C° 0.6 mm 4 mps 743 mmHg 77%
    10:00 +23°C° 0.6 mm 5 mps 743 mmHg 73%
    11:00 +25°C° 0.6 mm 5 mps 743 mmHg 68%
    12:00 +25°C° 0.5 mm 5 mps 743 mmHg 70%
    13:00 +25°C° 0.5 mm 5 mps 743 mmHg 72%
    14:00 +25°C° 0.5 mm 5 mps 743 mmHg 74%
    15:00 +23°C° 1.2 mm 4 mps 742 mmHg 79%
    16:00 +22°C° 1.2 mm 4 mps 742 mmHg 84%
    17:00 +21°C° 1.2 mm 4 mps 742 mmHg 89%
    18:00 +20°C° 0.9 mm 4 mps 742 mmHg 89%
    19:00 +20°C° 0.9 mm 4 mps 742 mmHg 89%
    20:00 +20°C° 0.9 mm 4 mps 742 mmHg 89%
    21:00 +19°C° 0 mm 4 mps 742 mmHg 90%
    22:00 +18°C° 0 mm 4 mps 742 mmHg 90%
    23:00 +17°C° 0 mm 4 mps 742 mmHg 90%

    29 Mayo, Miércoles

    Tiempo Temperatura Precipitaciones Viento Presión Humedad
    00:00 +17°C° 0 mm 4 mps 742 mmHg 91%
    01:00 +17°C° 0 mm 4 mps 742 mmHg 92%
    02:00 +17°C° 0 mm 4 mps 742 mmHg 92%
    03:00 +17°C° 0 mm 4 mps 742 mmHg 93%
    04:00 +17°C° 0 mm 4 mps 742 mmHg 93%
    05:00 +17°C° 0 mm 4 mps 741 mmHg 93%
    06:00 +19°C° 0 mm 5 mps 741 mmHg 87%
    07:00 +20°C° 0 mm 5 mps 741 mmHg 81%
    08:00 +21°C° 0 mm 6 mps 741 mmHg 75%
    09:00 +22°C° 0 mm 6 mps 741 mmHg 73%
    10:00 +23°C° 0 mm 6 mps 741 mmHg 70%
    11:00 +23°C° 0 mm 6 mps 741 mmHg 68%
    12:00 +24°C° 0 mm 6 mps 741 mmHg 68%
    13:00 +26°C° 0 mm 6 mps 741 mmHg 68%
    14:00 +26°C° 0 mm 6 mps 741 mmHg 68%
    15:00 +24°C° 1.1 mm 6 mps 742 mmHg 73%
    16:00 +25°C° 1.1 mm 5 mps 742 mmHg 78%
    17:00 +23°C° 1.1 mm 4 mps 742 mmHg 83%
    18:00 +22°C° 1.9 mm 3 mps 742 mmHg 85%
    19:00 +20°C° 1.9 mm 2 mps 742 mmHg 88%
    20:00 +20°C° 1.9 mm 1 mps 743 mmHg 90%
    21:00 +18°C° 0.8 mm 2 mps 743 mmHg 92%
    22:00 +18°C° 0.8 mm 2 mps 743 mmHg 95%
    23:00 +17°C° 0.8 mm 2 mps 744 mmHg 97%

    30 Mayo, Jueves

    Tiempo Temperatura Precipitaciones Viento Presión Humedad
    00:00 +16°C° 1.3 mm 3 mps 744 mmHg 96%
    01:00 +16°C° 1.3 mm 3 mps 744 mmHg 96%
    02:00 +14°C° 1.3 mm 4 mps 745 mmHg 96%
    03:00 +14°C° 0.1 mm 4 mps 745 mmHg 96%
    04:00 +13°C° 0.1 mm 4 mps 746 mmHg 96%
    05:00 +13°C° 0.1 mm 4 mps 747 mmHg 96%
    06:00 +13°C° 0 mm 4 mps 747 mmHg 89%
    07:00 +13°C° 0 mm 4 mps 748 mmHg 82%
    08:00 +14°C° 0 mm 4 mps 748 mmHg 76%
    09:00 +15°C° 0 mm 4 mps 748 mmHg 68%
    10:00 +17°C° 0 mm 4 mps 749 mmHg 61%
    11:00 +18°C° 0 mm 4 mps 749 mmHg 54%
    12:00 +18°C° 0 mm 4 mps 749 mmHg 51%
    13:00 +19°C° 0 mm 3 mps 749 mmHg 49%
    14:00 +19°C° 0 mm 3 mps 749 mmHg 46%
    15:00 +19°C° 0 mm 3 mps 749 mmHg 48%
    16:00 +19°C° 0 mm 3 mps 749 mmHg 50%
    17:00 +19°C° 0 mm 2 mps 749 mmHg 53%
    18:00 +17°C° 0 mm 2 mps 749 mmHg 58%
    19:00 +15°C° 0 mm 2 mps 749 mmHg 63%
    20:00 +13°C° 0 mm 2 mps 749 mmHg 68%
    21:00 +13°C° 0 mm 2 mps 749 mmHg 67%
    22:00 +12°C° 0 mm 2 mps 749 mmHg 66%
    23:00 +10°C° 0 mm 2 mps 749 mmHg 64%
    Mostrar más